Showing default

NUSAT-33 (ALBANIA-2), 55047

Orbit data source: Space-Track

NUSAT-33 (ALBANIA-2), 55047 is a payload satellite owned by URUGUS S.A. (AR) in SSO that was launched on Tue, 03 Jan 2023 UTC via an FALCON 9 launch vehicle from the Air Force Eastern Test Range (AFETR). Payload-class satellites include a variety of spacecraft equipped with specific instruments for various scientific and technological missions. These include communications satellites like Starlink; space stations such as the ISS; scientific satellites like the Hubble; Earth observation satellites from companies like Planet Labs, Umbra, and HawkEye 360; GPS; miniature CubeSats for education and research; and military/defense satellites.

Loading next visibility...
Identifier
55047, 2023-001AQ
Orbit
SSO
Country
Flag of UnknownUnknown / ARGN
Related business
Manufacturer
URUGUS S.A.
Mission
Operational Commercial Imaging
Bus & Motor
NEWSAT V, Unknown motor
Mass
41.5 kg wet, 38.5 kg dry
Launch date (UTC)
2023-01-03 (3 years ago)
Launch vehicle
FALCON 9
Launch site
Air Force Eastern Test Range (AFETR)
Object type
Payload
Rocket body
Debris
Shape & HBR
Box, 1.0 m
Radar Cross Section
0.542 m², Medium (>0.1 m² and < 1m²)

Expand to show TLE details & history
Last TLE update: 6 hours ago

TLE from 6 hours ago
0 NUSAT-33 (ALBANIA-2)
1 55047U 23001AQ  25298.94348134  .00014008  00000-0  54509-3 0  9998
2 55047  97.3377 359.2932 0008878 153.6072 206.5621 15.26086008156568
Epoch: 2025-10-25T22:38Z
TLE epoch observation values (Epoch: 2025-10-25T22:38:36.787Z)
Latitude
0.00001°
Longitude
-14.92686°
Altitude
496.081 km
Speed
7.614 km/s
True Right ascension
23h 57m 10s
True Declination
0° 00' 00"
Sunlit
Object was in full shadow at epoch
Visualization orbit readout
Latitude
Unknown
Longitude
Unknown
Altitude
Unknown
Speed
Unknown
Apparent Right ascension
Unknown
Apparent Declination
Unknown
Sunlit
N/A
Visualization observer readout
Local Sidereal Time
23:27:57
Azimuth
Unknown
Elevation
Unknown
Doppler factor
Unknown
Orbital elements
Apogee altitude
490.574 km
Perigee altitude
478.388 km
Semi-major axis
6,862.618 km
Eccentricity
0.00089
Inclination
97.3377°
RAAN
359.2932°
Arg. of periapsis
153.6072°
True anomaly
206.51665°
Mean anomaly
206.5621°
Eccentric anomaly
206.53937°
Mean motion
3.81776 °/min
Orbital period
94.3 mins
BSTAR
0.00054509
Loading maneuver chart data...
Computing Atmospheric mass density...
Loading historical data...
Loading historical data...
Loading historical data...
Loading historical data...
Loading historical data...
Loading historical data...
Loading historical data...

Documentation

Showing up to 5 results
|